PBO Station Position Time Series. Reference Frame : NAM14
Format Version,1.1.0
4-character ID,LEV5
Station name,Level_Island_5
Begin Date, 2007-08-22
End Date, 2019-10-07
Release Date, 2019-10-08
Reference position, 56.4656800941 North Latitude, -133.0927824524 East Longitude, 25.45095 meters elevation,
Date, North (mm), East (mm), Vertical (mm), North Std. Deviation (mm), East Std. Deviation (mm),              Vertical Std. Deviation (mm), Quality,
2007-08-22,0.00, 0.00, 0.00, 2.51, 1.61, 7.34, repro,
2007-08-23,-0.60, -0.31, 6.96, 2.48, 1.59, 7.37, repro,
2007-08-24,-2.95, 0.06, -4.16, 2.54, 1.67, 7.86, repro,
2007-08-25,1.36, -0.36, 3.06, 2.52, 1.63, 7.51, repro,
2007-08-26,-0.21, -1.06, 6.01, 2.48, 1.60, 7.25, repro,
2007-08-27,-0.16, 0.08, -1.52, 2.52, 1.61, 7.30, repro,
2007-08-28,0.12, -0.75, 1.85, 2.45, 1.56, 7.30, repro,
2007-08-29,-0.85, 0.36, -0.26, 2.44, 1.57, 7.15, repro,
2007-08-30,-2.56, -0.38, -4.58, 2.42, 1.56, 7.12, repro,
2007-08-31,-2.41, 0.24, 5.58, 2.38, 1.54, 7.06, repro,
2007-09-01,-0.89, -0.46, 11.36, 2.38, 1.53, 7.01, repro,
2007-09-02,-0.43, -0.07, 4.75, 2.44, 1.55, 7.20, repro,
2007-09-03,-1.52, -0.31, -0.21, 2.42, 1.55, 7.11, repro,
2007-09-04,-1.95, -0.14, 0.72, 2.44, 1.57, 7.20, repro,
2007-09-05,-0.90, -0.39, 2.65, 3.02, 2.04, 9.70, repro,
2007-09-07,-0.85, 1.85, 8.16, 4.16, 2.49, 11.01, repro,
2007-09-08,-0.83, 0.93, -6.47, 2.52, 1.64, 7.44, repro,
2007-09-09,-1.51, 1.41, -8.00, 2.54, 1.62, 7.41, repro,
2007-09-10,-2.50, 0.32, -6.20, 2.39, 1.53, 7.11, repro,
2007-09-11,0.19, -0.37, 2.95, 2.46, 1.60, 7.42, repro,
2007-09-12,-0.32, 0.15, 1.16, 2.41, 1.55, 7.12, repro,
2007-09-13,-0.42, 1.24, 1.30, 2.41, 1.54, 7.11, repro,
2007-09-14,-1.39, 0.08, 3.43, 2.41, 1.54, 7.13, repro,
2007-09-15,-4.09, 0.43, 0.72, 2.43, 1.57, 7.21, repro,
2007-09-16,-0.97, -0.27, 5.40, 2.37, 1.54, 7.05, repro,
2007-09-17,0.21, 1.12, -0.60, 2.44, 1.57, 7.21, repro,
2007-09-18,-1.52, 0.44, 3.44, 2.51, 1.61, 7.51, repro,
2007-09-19,-1.58, 0.92, 2.04, 2.41, 1.54, 7.07, repro,
2007-09-20,-3.77, 2.07, 4.72, 2.40, 1.53, 7.08, repro,
2007-09-21,-3.51, 0.77, -2.11, 2.41, 1.52, 7.10, repro,
2007-09-22,-1.18, 1.14, 2.73, 2.39, 1.53, 7.10, repro,
2007-09-23,-1.13, 1.24, 2.60, 2.46, 1.54, 7.16, repro,
2007-09-24,-0.65, -0.04, 7.60, 2.44, 1.54, 7.26, repro,
2007-09-25,-1.07, 0.63, -5.06, 2.46, 1.54, 7.21, repro,
2007-09-26,-2.07, 0.74, 4.02, 2.46, 1.55, 7.26, repro,
2007-09-27,0.11, 1.06, -1.69, 2.50, 1.57, 7.40, repro,
2007-09-28,-0.83, 1.50, 8.40, 2.38, 1.52, 7.03, repro,
2007-09-29,-2.04, 0.62, 3.22, 2.44, 1.53, 7.17, repro,
2007-09-30,-2.31, 0.73, 9.00, 2.39, 1.53, 7.07, repro,
2007-10-01,-1.91, 0.30, 6.90, 2.46, 1.57, 7.21, repro,
2007-10-02,-2.58, 0.86, 3.30, 2.52, 1.59, 7.39, repro,
2007-10-03,-0.97, 1.08, 7.87, 2.45, 1.55, 7.27, repro,
2007-10-04,-0.39, 0.49, 4.67, 2.51, 1.59, 7.57, repro,
2007-10-05,-1.24, 0.70, 8.26, 2.40, 1.53, 7.11, repro,
2007-10-06,-2.23, 0.40, 2.86, 2.42, 1.54, 7.20, repro,
2007-10-07,-0.30, 0.47, 2.95, 2.43, 1.54, 7.19, repro,
2007-10-08,-1.72, 1.49, 2.56, 2.61, 1.66, 7.71, repro,
2007-10-09,1.27, 2.49, 3.12, 2.61, 1.72, 8.03, repro,
2007-10-10,-0.45, 0.82, 4.65, 2.57, 1.62, 7.57, repro,
2007-10-11,-0.97, 0.59, 3.76, 2.46, 1.57, 7.22, repro,
2007-10-12,-1.28, 1.25, -0.55, 2.48, 1.58, 7.38, repro,
2007-10-13,-0.66, 0.78, 5.84, 2.42, 1.55, 7.27, repro,
2007-10-14,0.06, 1.04, 9.80, 2.39, 1.52, 7.06, repro,
2007-10-15,-0.30, 1.61, 2.46, 2.40, 1.52, 7.05, repro,
2007-10-16,0.49, 0.25, 7.82, 2.39, 1.52, 7.05, repro,
2007-10-17,0.51, -0.75, 9.47, 2.47, 1.56, 7.22, repro,
2007-10-18,2.89, 0.68, 9.02, 2.46, 1.55, 7.14, repro,
2007-10-19,0.58, 0.40, 7.79, 2.37, 1.53, 7.01, repro,
2007-10-20,0.26, 0.47, 9.50, 2.49, 1.54, 7.31, repro,
2007-10-21,0.62, 0.73, 1.36, 2.39, 1.54, 7.05, repro,
2007-10-22,-1.06, 0.83, 5.00, 2.49, 1.55, 7.38, repro,
2007-10-23,-1.24, 1.50, 0.54, 2.47, 1.56, 7.22, repro,
2007-10-24,1.75, -0.21, -5.20, 2.48, 1.58, 7.33, repro,
2007-10-25,1.96, 1.42, -3.96, 2.46, 1.58, 7.31, repro,
2007-10-26,2.18, 0.87, -3.05, 2.48, 1.59, 7.50, repro,
2007-10-27,1.71, -0.29, -0.87, 2.39, 1.53, 7.08, repro,
2007-10-28,1.11, 0.02, -3.72, 2.42, 1.53, 7.15, repro,
2007-10-29,2.20, -0.17, -1.16, 2.37, 1.53, 7.12, repro,
2007-10-30,0.74, 0.25, 1.42, 2.37, 1.53, 7.06, repro,
2007-10-31,0.97, 1.11, 4.89, 2.40, 1.51, 7.06, repro,
2007-11-01,2.50, 0.67, -1.11, 2.43, 1.53, 7.23, repro,
2007-11-02,1.29, 0.58, -4.41, 2.41, 1.54, 7.25, repro,
2007-11-03,1.30, 1.67, -5.25, 2.42, 1.52, 7.12, repro,
2007-11-04,3.15, 2.12, -0.27, 2.40, 1.52, 7.10, repro,
2007-11-05,2.06, 2.21, -6.62, 2.46, 1.58, 7.45, repro,
2007-11-06,1.10, 0.80, -3.18, 2.44, 1.53, 7.12, repro,
2007-11-07,1.44, 0.13, -6.69, 2.40, 1.51, 7.05, repro,
2007-11-08,1.76, 2.11, -2.73, 2.50, 1.58, 7.37, repro,
2007-11-09,0.20, 1.29, 1.61, 2.44, 1.55, 7.13, repro,
2007-11-10,0.29, 0.07, 4.38, 2.39, 1.51, 7.01, repro,
2007-11-11,0.88, 1.00, 7.64, 2.41, 1.51, 7.04, repro,
2007-11-12,0.78, 0.51, 5.93, 2.39, 1.51, 7.04, repro,
2007-11-13,1.27, 0.75, -1.49, 2.40, 1.52, 7.09, repro,
2007-11-14,0.06, 1.71, -4.66, 2.37, 1.51, 6.99, repro,
2007-11-15,1.07, 1.06, 2.37, 2.41, 1.52, 7.07, repro,
2007-11-16,-1.70, -1.69, 9.54, 2.37, 1.52, 7.01, repro,
2007-11-17,1.64, -0.05, 3.57, 2.38, 1.51, 7.00, repro,
2007-11-18,0.84, 0.18, -0.97, 2.43, 1.54, 7.16, repro,
2007-11-19,0.97, 1.26, -6.72, 2.44, 1.54, 7.15, repro,
2007-11-20,0.69, 1.01, -10.39, 2.44, 1.57, 7.33, repro,
2007-11-21,0.55, 1.07, -10.79, 2.48, 1.60, 7.50, repro,
2007-11-22,1.64, 0.66, -5.38, 2.41, 1.53, 7.10, repro,
2007-11-23,0.54, 0.90, -8.61, 2.50, 1.61, 7.73, repro,
2007-11-24,1.90, 0.17, -1.41, 2.47, 1.56, 7.34, repro,
2007-11-25,0.94, 1.80, -6.40, 2.49, 1.62, 7.66, repro,
2007-11-26,1.59, 1.50, -7.45, 2.60, 1.69, 8.33, repro,
2007-11-27,1.02, 0.49, -4.74, 2.49, 1.62, 7.62, repro,
2007-11-28,0.93, 1.27, -7.63, 2.43, 1.56, 7.24, repro,
2007-11-29,1.79, 2.66, -11.43, 2.47, 1.58, 7.40, repro,
2007-11-30,1.75, 2.32, -11.76, 2.46, 1.57, 7.35, repro,
2007-12-01,1.01, 2.44, -8.55, 2.48, 1.63, 7.64, repro,
2007-12-02,0.63, 1.61, -6.47, 2.57, 1.73, 8.27, repro,
2007-12-03,3.33, 0.10, -8.90, 3.10, 1.99, 8.97, repro,
2007-12-04,0.98, 2.94, -6.06, 2.55, 1.71, 8.19, repro,
2007-12-05,1.72, 3.27, -5.21, 2.56, 1.73, 8.09, repro,
2007-12-06,0.44, 2.76, -12.52, 2.52, 1.69, 8.25, repro,
2007-12-07,1.24, 3.17, -7.25, 2.60, 1.70, 8.13, repro,
2007-12-08,1.09, 2.59, -5.30, 2.50, 1.64, 7.75, repro,
2007-12-09,-0.04, 4.17, -6.40, 2.62, 1.75, 8.42, repro,
2007-12-10,0.09, 3.19, -10.24, 2.50, 1.61, 7.62, repro,
2007-12-11,0.59, 3.74, -6.04, 2.55, 1.60, 7.45, repro,
2007-12-12,0.29, 1.57, -12.62, 2.53, 1.61, 7.48, repro,
2007-12-13,1.02, 3.07, -10.61, 2.46, 1.58, 7.39, repro,
2007-12-14,1.60, 2.75, -6.29, 2.42, 1.54, 7.14, repro,
2007-12-15,2.74, 1.78, 3.63, 2.40, 1.54, 7.09, repro,
2007-12-16,2.03, 1.74, -2.13, 2.39, 1.53, 7.08, repro,
2007-12-17,0.99, 2.59, 1.14, 2.49, 1.58, 7.33, repro,
2007-12-18,0.24, 2.39, -2.78, 2.44, 1.56, 7.21, repro,
2007-12-19,0.83, 4.02, -5.21, 2.51, 1.62, 7.58, repro,
2007-12-20,2.19, 2.32, -2.54, 2.43, 1.58, 7.32, repro,
2007-12-21,-0.05, 5.40, -16.09, 2.53, 1.65, 7.67, repro,
2007-12-22,0.47, 1.12, -3.14, 2.48, 1.66, 7.69, repro,
2007-12-23,0.57, 2.61, -4.16, 2.42, 1.62, 7.57, repro,
2007-12-24,0.27, 1.76, -5.31, 2.45, 1.59, 7.41, repro,
2007-12-25,1.38, 2.30, -1.51, 2.43, 1.55, 7.18, repro,
2007-12-26,1.44, 2.28, -9.12, 2.41, 1.56, 7.30, repro,
2007-12-27,1.43, 2.38, -5.96, 2.45, 1.53, 7.19, repro,
2007-12-28,1.78, 2.34, -5.17, 2.49, 1.58, 7.51, repro,
2007-12-29,-0.29, 2.88, -7.94, 2.47, 1.54, 7.25, repro,
2007-12-30,1.39, 1.98, -11.82, 2.49, 1.57, 7.48, repro,
2007-12-31,1.39, 3.08, -13.20, 2.38, 1.52, 7.05, repro,
2008-01-01,1.14, 2.53, -9.25, 2.38, 1.52, 7.07, repro,
2008-01-02,-0.02, 2.26, -3.10, 2.34, 1.49, 6.88, repro,
2008-01-03,-0.44, 2.24, 2.54, 2.35, 1.51, 6.95, repro,
2008-01-04,0.76, 2.22, 8.27, 2.35, 1.51, 6.96, repro,
2008-01-05,0.53, 1.65, 5.13, 2.40, 1.53, 7.06, repro,
2008-01-06,2.03, 2.44, 0.88, 2.37, 1.51, 6.95, repro,
2008-01-07,2.22, 2.79, -4.66, 2.35, 1.49, 6.86, repro,
2008-01-08,0.49, 3.00, -7.13, 2.41, 1.56, 7.22, repro,
2008-01-09,0.08, 4.41, -0.97, 2.40, 1.53, 7.11, repro,
2008-01-10,0.39, 3.30, -5.57, 2.37, 1.51, 7.00, repro,
2008-01-11,-0.08, 4.55, -5.83, 2.40, 1.53, 7.13, repro,
2008-01-12,3.17, 1.98, 1.68, 2.37, 1.50, 6.93, repro,
2008-01-13,-0.30, 3.24, -7.38, 2.36, 1.51, 6.92, repro,
2008-01-14,0.39, 3.57, -6.26, 2.38, 1.51, 6.98, repro,
2008-01-15,1.13, 3.26, -11.73, 2.37, 1.50, 6.96, repro,
2008-01-16,1.32, 2.21, -15.93, 2.46, 1.57, 7.40, repro,
2008-01-17,0.92, 2.65, -16.18, 2.42, 1.53, 7.16, repro,
2008-01-18,2.42, 2.02, -13.97, 2.43, 1.54, 7.13, repro,
2008-01-19,3.70, 2.29, -16.07, 2.37, 1.52, 6.97, repro,
2008-01-20,2.79, 4.37, -20.13, 2.38, 1.52, 7.02, repro,
2008-01-21,2.15, 3.04, -18.29, 2.41, 1.53, 7.17, repro,
2008-01-22,1.57, 3.42, -16.61, 2.40, 1.52, 7.03, repro,
2008-01-23,1.60, 2.55, -12.41, 2.41, 1.52, 7.06, repro,
2008-01-24,1.92, 3.18, -21.89, 2.41, 1.53, 7.14, repro,
2008-01-25,0.97, 2.62, -7.22, 2.42, 1.52, 7.15, repro,
2008-01-26,2.04, 2.89, -1.05, 2.45, 1.54, 7.17, repro,
2008-01-27,3.71, 1.15, -4.21, 2.36, 1.51, 6.97, repro,
2008-01-28,3.05, 2.70, -1.77, 2.35, 1.50, 6.92, repro,
2008-01-29,2.87, 2.32, -4.95, 2.53, 1.63, 7.53, repro,
2008-01-30,3.25, 2.18, -6.28, 2.48, 1.57, 7.23, repro,
2008-01-31,3.34, 1.77, -4.72, 2.40, 1.53, 7.00, repro,
2008-02-01,3.24, 1.87, -5.17, 2.40, 1.54, 7.12, repro,
2008-02-02,3.70, 3.10, -9.56, 2.41, 1.54, 7.14, repro,
2008-02-03,2.63, 1.97, -10.56, 2.32, 1.50, 6.93, repro,
2008-02-04,4.21, 2.37, -13.56, 2.36, 1.50, 6.94, repro,
2008-02-05,6.09, 3.59, -8.71, 2.43, 1.57, 7.17, repro,
2008-02-06,4.65, 1.69, -4.86, 2.41, 1.57, 7.17, repro,
2008-02-07,5.20, 2.94, -5.01, 2.45, 1.57, 7.31, repro,
2008-02-08,4.06, 3.11, -11.89, 2.38, 1.53, 7.13, repro,
2008-02-09,5.34, 2.77, -4.36, 2.32, 1.50, 6.91, repro,
2008-02-10,1.87, 3.02, -7.20, 2.37, 1.51, 6.98, repro,
2008-02-11,2.34, 2.94, -7.29, 2.34, 1.52, 7.03, repro,
2008-02-12,2.81, 1.64, -6.37, 2.36, 1.52, 7.04, repro,
2008-02-13,2.12, 2.65, -10.11, 2.35, 1.51, 6.99, repro,
2008-02-14,3.24, 2.43, -10.71, 2.35, 1.50, 6.99, repro,
2008-02-15,3.11, 1.24, -14.24, 2.37, 1.52, 7.19, repro,
2008-02-16,2.93, 3.74, -7.59, 2.35, 1.51, 7.00, repro,
2008-02-17,1.84, 3.63, -16.34, 2.36, 1.52, 7.04, repro,
2008-02-18,5.26, 3.90, -16.25, 2.37, 1.52, 7.11, repro,
2008-02-19,3.70, 2.40, -2.98, 2.37, 1.52, 7.06, repro,
2008-02-20,2.70, 2.73, -7.08, 2.35, 1.48, 6.92, repro,
2008-02-21,3.83, 3.03, 3.33, 2.34, 1.48, 6.88, repro,
2008-02-22,2.04, 3.64, -7.39, 2.35, 1.50, 6.97, repro,
2008-02-23,2.01, 3.74, -9.14, 2.36, 1.52, 7.05, repro,
2008-02-24,2.01, 3.21, -10.14, 2.38, 1.51, 7.00, repro,
2008-02-25,2.44, 3.60, -14.55, 2.36, 1.50, 6.96, repro,
2008-02-26,3.29, 2.38, -16.36, 2.35, 1.48, 6.87, repro,
2008-02-27,1.97, 2.16, -9.35, 2.35, 1.49, 6.93, repro,
2008-02-28,1.61, 2.85, -12.17, 2.39, 1.53, 7.09, repro,
2008-02-29,-0.30, 4.35, -14.15, 3.49, 2.54, 10.90, repro,
2008-03-01,1.71, 3.10, -12.35, 2.36, 1.51, 6.96, repro,
2008-03-02,2.96, 3.81, -17.98, 2.43, 1.54, 7.25, repro,
2008-03-03,1.56, 3.44, -12.71, 2.37, 1.50, 6.91, repro,
2008-03-04,2.11, 3.99, -15.71, 2.35, 1.51, 6.97, repro,
2008-03-05,1.72, 4.58, -25.04, 2.42, 1.58, 7.29, repro,
2008-03-06,-0.55, 3.43, -14.60, 2.85, 1.78, 8.44, repro,
2008-03-07,1.46, 3.83, -13.66, 2.36, 1.51, 6.97, repro,
2008-03-08,1.67, 3.45, -14.80, 2.34, 1.50, 6.88, repro,
2008-03-09,0.25, 4.03, -7.24, 2.64, 1.73, 8.29, repro,
2008-03-10,2.37, 1.69, -17.40, 3.40, 1.98, 9.62, repro,
2008-03-11,1.94, 3.07, -15.61, 2.37, 1.52, 7.06, repro,
2008-03-12,1.37, 3.15, -13.53, 2.34, 1.51, 6.93, repro,
2008-03-13,1.66, 4.88, -17.57, 2.34, 1.50, 6.92, repro,
2008-03-14,2.07, 3.57, -16.40, 2.39, 1.52, 7.00, repro,
2008-03-15,2.74, 3.64, -22.11, 2.41, 1.55, 7.12, repro,
2008-03-16,0.65, 5.23, -14.89, 2.38, 1.52, 7.06, repro,
2008-03-17,3.12, 2.94, -9.73, 2.47, 1.55, 7.27, repro,
2008-03-18,1.00, 3.97, -15.64, 2.48, 1.54, 7.26, repro,
2008-03-19,3.40, 3.58, -14.59, 2.43, 1.51, 7.10, repro,
2008-03-20,1.04, 4.05, -15.12, 2.43, 1.52, 7.13, repro,
2008-03-21,4.31, 2.55, -16.14, 2.64, 1.65, 7.67, repro,
2008-03-22,-0.09, 2.98, -17.99, 2.42, 1.50, 7.07, repro,
2008-03-23,-0.71, 3.07, -14.87, 2.43, 1.51, 7.12, repro,
2008-03-24,0.97, 3.42, -14.11, 2.39, 1.48, 6.93, repro,
2008-03-25,2.55, 3.97, -23.03, 2.49, 1.56, 7.34, repro,
2008-03-26,2.63, 3.54, -13.87, 2.49, 1.57, 7.36, repro,
2008-03-27,2.01, 3.84, -17.75, 2.45, 1.52, 7.16, repro,
2008-03-28,3.10, 4.85, -25.64, 2.53, 1.56, 7.40, repro,
2008-03-29,2.01, 4.42, -15.00, 2.40, 1.49, 7.01, repro,
2008-03-30,4.00, 3.66, -13.49, 2.41, 1.48, 6.97, repro,
2008-03-31,3.00, 3.26, -17.54, 2.47, 1.52, 7.16, repro,
2008-04-01,2.66, 3.76, -19.17, 2.43, 1.50, 7.05, repro,
2008-04-02,2.28, 4.02, -16.68, 2.44, 1.50, 7.10, repro,
2008-04-03,1.70, 3.78, -19.68, 2.42, 1.49, 7.01, repro,
2008-04-04,2.82, 3.03, -15.90, 2.40, 1.49, 6.97, repro,
2008-04-05,3.02, 3.28, -9.97, 2.43, 1.49, 7.00, repro,
2008-04-06,2.41, 2.55, -15.45, 2.44, 1.50, 7.04, repro,
2008-04-07,1.20, 2.00, -15.00, 2.44, 1.49, 7.04, repro,
2008-04-08,0.54, 3.22, -19.79, 2.43, 1.49, 7.01, repro,
2008-04-09,1.96, 3.87, -14.78, 2.46, 1.50, 7.10, repro,
2008-04-10,1.49, 2.46, -14.74, 2.46, 1.49, 7.11, repro,
2008-04-11,2.61, 4.83, -20.41, 2.42, 1.49, 7.01, repro,
2008-04-12,1.51, 2.43, -14.20, 2.46, 1.53, 7.27, repro,
2008-04-13,0.98, 1.31, -17.04, 2.44, 1.48, 7.03, repro,
2008-04-14,0.87, 2.95, -12.00, 2.42, 1.48, 7.01, repro,
2008-04-15,2.78, 1.49, -8.48, 2.50, 1.54, 7.21, repro,
2008-04-16,1.73, 3.69, -16.05, 2.50, 1.54, 7.20, repro,
2008-04-17,3.90, 1.66, -18.81, 2.42, 1.49, 7.03, repro,
2008-04-18,4.00, 2.57, -20.40, 2.42, 1.50, 7.14, repro,
2008-04-19,3.44, 2.84, -25.59, 2.42, 1.48, 7.00, repro,
2008-04-20,3.16, 2.93, -18.08, 2.45, 1.49, 7.08, repro,
2008-04-21,3.90, 3.41, -21.29, 2.45, 1.50, 7.09, repro,
2008-04-22,3.91, 3.91, -20.61, 2.44, 1.50, 7.06, repro,
2008-04-23,3.71, 3.25, -21.97, 2.45, 1.52, 7.15, repro,
2008-04-24,3.85, 3.30, -20.63, 2.43, 1.50, 7.06, repro,
2008-04-25,3.11, 2.86, -21.83, 2.42, 1.48, 6.99, repro,
2008-04-26,1.20, 3.73, -19.73, 2.53, 1.52, 7.15, repro,
2008-04-27,1.62, 3.47, -12.35, 2.53, 1.55, 7.15, repro,
2008-04-28,2.69, 2.60, -19.38, 2.44, 1.50, 7.09, repro,
2008-04-29,1.93, 2.08, -18.45, 2.47, 1.52, 7.18, repro,
2008-04-30,3.72, 1.95, -18.96, 2.43, 1.49, 7.02, repro,
2008-05-01,2.21, 3.43, -23.96, 2.42, 1.47, 6.92, repro,
2008-05-02,2.19, 3.94, -16.81, 2.40, 1.49, 6.98, repro,
2008-05-03,1.83, 1.94, -18.59, 2.41, 1.48, 6.97, repro,
2008-05-04,3.70, 3.33, -18.18, 2.42, 1.49, 7.04, repro,
2008-05-05,2.22, 2.77, -23.69, 2.41, 1.49, 7.01, repro,
2008-05-06,3.47, 2.52, -20.28, 2.42, 1.48, 7.00, repro,
2008-05-07,1.99, 1.92, -19.01, 2.38, 1.47, 6.90, repro,
2008-05-08,2.34, 2.20, -21.68, 2.49, 1.51, 7.22, repro,
2008-05-09,2.01, 2.31, -24.36, 2.40, 1.49, 7.06, repro,
2008-05-10,3.30, 3.56, -19.95, 2.41, 1.50, 7.05, repro,
2008-05-11,3.14, 2.84, -18.92, 2.41, 1.49, 6.97, repro,
2008-05-12,0.74, 4.22, -17.62, 2.45, 1.53, 7.32, repro,
2008-05-13,2.38, 3.25, -15.56, 2.38, 1.49, 6.98, repro,
2008-05-14,1.64, 2.94, -14.93, 2.42, 1.49, 7.05, repro,
2008-05-15,1.07, 2.49, -19.60, 2.41, 1.50, 7.10, repro,
2008-05-16,2.32, 2.98, -26.07, 2.42, 1.50, 7.04, repro,
2008-05-17,1.03, 3.29, -14.24, 2.42, 1.50, 7.09, repro,
2008-05-18,2.79, 2.49, -19.44, 2.36, 1.48, 6.86, repro,
2008-05-19,3.18, 3.34, -16.18, 2.42, 1.50, 7.05, repro,
2008-05-20,2.09, 1.99, -17.13, 2.39, 1.49, 7.01, repro,
2008-05-21,2.21, 3.29, -22.63, 4.09, 2.44, 10.85, repro,
2008-05-22,1.56, 3.69, -21.18, 2.44, 1.52, 7.22, repro,
2008-05-23,2.52, 4.23, -19.62, 2.47, 1.57, 7.31, repro,
2008-05-24,3.53, 5.11, -22.91, 2.40, 1.49, 7.02, repro,
2008-05-25,3.34, 4.86, -19.79, 2.42, 1.50, 7.11, repro,
2008-05-26,3.75, 3.83, -19.60, 2.40, 1.51, 7.14, repro,
2008-05-27,3.66, 3.59, -22.51, 2.42, 1.50, 7.10, repro,
2008-05-28,0.68, 4.15, -22.84, 2.84, 1.77, 8.31, repro,
2008-05-29,3.29, 1.29, -18.84, 2.76, 1.75, 8.30, repro,
2008-05-30,3.63, 3.46, -14.53, 2.39, 1.50, 7.05, repro,
2008-05-31,3.58, 4.13, -17.19, 2.37, 1.49, 6.99, repro,
2008-06-01,3.15, 3.40, -13.14, 2.41, 1.51, 7.11, repro,
2008-06-02,2.33, 3.20, -9.84, 2.42, 1.52, 7.17, repro,
2008-06-03,3.34, 2.33, -3.61, 3.09, 1.93, 9.22, repro,
2008-06-05,2.97, 3.15, -13.15, 2.55, 1.60, 7.66, repro,
2008-06-06,2.68, 2.13, -15.23, 2.44, 1.52, 7.11, repro,
2008-06-07,1.92, 2.62, -20.58, 2.54, 1.56, 7.42, repro,
2008-06-08,2.38, 3.36, -13.74, 2.48, 1.54, 7.21, repro,
2008-06-09,3.60, 3.33, -16.11, 2.39, 1.51, 6.98, repro,
2008-06-10,3.09, 2.26, -17.26, 2.46, 1.53, 7.19, repro,
2008-06-11,2.39, 1.65, -22.73, 2.46, 1.51, 7.15, repro,
2008-06-13,3.04, 3.17, -19.35, 2.42, 1.51, 7.14, repro,
2008-06-14,2.89, 1.88, -17.13, 2.49, 1.59, 7.48, repro,
2008-06-15,3.51, 2.53, -17.03, 2.50, 1.54, 7.23, repro,
2008-06-16,2.53, 2.51, -17.94, 2.42, 1.52, 7.12, repro,
2008-06-17,1.83, 2.68, -18.53, 2.38, 1.48, 6.94, repro,
2008-06-20,3.19, 3.00, -20.38, 2.39, 1.50, 7.02, repro,
2008-06-21,4.11, 1.91, -21.25, 2.41, 1.51, 7.07, repro,
2008-06-22,3.11, 1.89, -21.56, 2.45, 1.52, 7.22, repro,
2008-06-23,1.69, 3.04, -15.50, 2.40, 1.50, 7.04, repro,
2008-06-24,0.78, 2.93, -16.51, 2.43, 1.51, 7.14, repro,
2008-06-25,0.27, 2.14, -17.71, 2.48, 1.53, 7.27, repro,
2008-06-26,2.56, 1.50, -11.63, 2.43, 1.54, 7.29, repro,
2008-06-27,-1.14, 1.48, -15.53, 2.45, 1.54, 7.39, repro,
2008-06-28,3.05, 1.39, -18.44, 2.42, 1.52, 7.10, repro,
2008-06-29,3.11, 0.96, -15.73, 2.46, 1.53, 7.25, repro,
2008-06-30,2.42, 1.78, -18.74, 2.43, 1.51, 7.15, repro,
2008-07-01,2.29, 1.61, -19.39, 2.47, 1.53, 7.32, repro,
2008-07-02,2.04, 3.20, -14.33, 2.50, 1.58, 7.45, repro,
2008-07-03,1.05, 1.44, -13.71, 2.44, 1.50, 7.10, repro,
2008-07-04,0.07, 1.77, -17.49, 2.42, 1.50, 7.08, repro,
2008-07-05,0.18, 0.56, -11.23, 2.42, 1.51, 7.07, repro,
2008-07-06,1.53, 1.71, -9.15, 2.43, 1.52, 7.11, repro,
2008-07-07,1.24, 2.51, -12.23, 2.42, 1.50, 7.07, repro,
2008-07-08,1.14, 1.01, -7.62, 2.43, 1.50, 7.06, repro,
2008-07-09,0.80, 1.70, -6.94, 2.43, 1.50, 7.06, repro,
2008-07-10,0.45, 1.20, -8.94, 2.49, 1.55, 7.21, repro,
2008-07-11,1.63, 0.69, -14.77, 2.54, 1.59, 7.43, repro,
2008-07-12,1.02, 0.24, -11.36, 2.48, 1.52, 7.19, repro,
2008-07-13,1.06, 0.56, -12.32, 2.49, 1.56, 7.43, repro,
2008-07-14,0.72, 0.73, -11.02, 2.44, 1.54, 7.30, repro,
2008-07-15,-0.04, 2.17, -15.25, 2.43, 1.51, 7.07, repro,
2008-07-16,0.16, 0.98, -13.66, 2.55, 1.55, 7.30, repro,
2008-07-17,3.23, 1.46, -6.51, 2.42, 1.50, 7.12, repro,
2008-07-18,0.67, 1.73, -5.43, 2.53, 1.57, 7.37, repro,
2008-07-19,1.85, 1.03, -6.44, 2.48, 1.52, 7.17, repro,
2008-07-20,1.38, 0.06, -9.23, 2.41, 1.50, 7.06, repro,
2008-07-21,0.82, 1.94, -9.09, 2.51, 1.56, 7.36, repro,
2008-07-22,1.86, 1.37, -7.16, 2.43, 1.50, 7.06, repro,
2008-07-23,2.01, 1.34, -10.54, 2.57, 1.56, 7.40, repro,
2008-07-24,1.08, 0.91, -10.38, 2.42, 1.51, 7.06, repro,
2008-07-25,2.51, 1.80, -39.42, 7.32, 4.09, 23.76, repro,
2008-08-01,2.18, 0.65, -1.86, 2.41, 1.51, 7.11, repro,
2008-08-02,3.16, 0.26, -3.76, 2.40, 1.51, 7.04, repro,
2008-08-03,1.74, 1.24, -2.53, 2.40, 1.55, 7.36, repro,
2008-08-04,4.80, -0.56, -4.57, 3.05, 1.96, 9.66, repro,
2008-08-05,2.18, 1.38, -11.90, 2.42, 1.53, 7.16, repro,
2008-08-06,3.82, 1.12, -4.84, 2.57, 1.57, 7.33, repro,
2008-08-07,2.67, 0.41, -1.68, 2.51, 1.55, 7.33, repro,
2008-08-08,2.10, 0.19, -4.05, 2.45, 1.54, 7.28, repro,
2008-08-09,2.14, 0.20, 1.46, 2.39, 1.50, 7.01, repro,
2008-08-10,-0.09, 0.55, -5.49, 2.40, 1.50, 7.05, repro,
2008-08-11,2.25, 0.25, -10.90, 2.87, 1.82, 8.96, repro,
2008-08-12,2.55, -0.93, 2.80, 2.43, 1.53, 7.14, repro,
2008-08-13,2.74, 0.64, -0.72, 2.59, 1.57, 7.39, repro,
2008-08-14,0.68, 0.92, -6.60, 2.44, 1.52, 7.16, repro,
2008-08-15,2.79, -0.18, -3.39, 2.49, 1.54, 7.28, repro,
2008-08-16,0.89, 1.42, -6.09, 2.45, 1.52, 7.17, repro,
2008-08-17,1.40, -0.55, 0.58, 2.43, 1.53, 7.16, repro,
2008-08-18,0.74, 0.06, 5.55, 2.42, 1.53, 7.14, repro,
2008-08-19,0.70, 1.32, 6.04, 2.46, 1.52, 7.18, repro,
2008-08-20,-1.46, -0.64, 5.31, 2.49, 1.55, 7.25, repro,
2008-08-21,1.18, 0.78, 1.10, 2.41, 1.51, 7.07, repro,
2008-08-22,-0.41, -0.51, 3.31, 2.42, 1.52, 7.15, repro,
2008-08-23,-1.06, -0.32, 2.11, 2.40, 1.50, 7.01, repro,
2008-08-24,0.62, 0.43, 3.13, 2.42, 1.53, 7.17, repro,
2008-08-25,0.24, 0.75, 5.55, 2.41, 1.51, 7.08, repro,
2008-08-26,0.98, 0.64, 6.07, 2.41, 1.51, 7.05, repro,
2008-08-27,0.31, -0.15, 2.27, 2.53, 1.60, 7.46, repro,
2008-08-28,0.92, -0.69, 1.70, 2.53, 1.58, 7.32, repro,
2008-08-29,0.13, 0.27, -2.36, 2.42, 1.51, 7.10, repro,
2008-08-30,1.03, 0.19, 6.05, 2.43, 1.52, 7.19, repro,
2008-08-31,0.61, 1.13, 0.43, 2.45, 1.54, 7.25, repro,
2008-09-01,0.97, 0.67, -1.48, 2.47, 1.53, 7.23, repro,
2008-09-02,1.00, 1.83, -6.44, 2.47, 1.55, 7.32, repro,
2008-09-03,-0.29, 1.21, -2.44, 2.52, 1.62, 7.43, repro,
2008-09-04,-1.42, 1.69, -8.74, 2.61, 1.66, 7.97, repro,
2008-09-05,0.16, 1.18, 2.07, 2.45, 1.57, 7.29, repro,
2008-09-06,1.24, 1.82, -6.59, 2.43, 1.51, 7.15, repro,
2008-09-07,0.34, 2.31, -3.89, 2.46, 1.54, 7.22, repro,
2008-09-08,0.19, 1.64, -10.28, 2.52, 1.55, 7.29, repro,
2008-09-09,1.28, 1.01, 2.20, 2.48, 1.52, 7.15, repro,
2008-09-10,3.00, 2.12, -0.65, 2.87, 1.78, 8.02, repro,
2008-09-11,-0.51, 1.32, 1.49, 2.61, 1.63, 7.54, repro,
2008-09-12,1.43, 1.65, -2.20, 2.47, 1.55, 7.31, repro,
2008-09-13,1.68, 0.71, -1.41, 2.44, 1.52, 7.13, repro,
2008-09-14,0.76, 1.82, -2.56, 2.48, 1.52, 7.16, repro,
2008-09-15,1.26, 1.85, -2.59, 2.47, 1.55, 7.25, repro,
2008-09-16,0.27, -0.10, -6.88, 2.52, 1.60, 7.58, repro,
2008-09-17,1.61, 2.04, -0.96, 2.55, 1.62, 7.79, repro,
2008-09-18,0.18, 0.68, -4.50, 2.46, 1.52, 7.17, repro,
2008-09-19,1.81, 0.51, -1.83, 2.53, 1.58, 7.39, repro,
2008-09-20,0.77, -0.07, 3.78, 2.42, 1.52, 7.06, repro,
2008-09-21,1.00, 1.12, 4.95, 2.43, 1.52, 7.10, repro,
2008-09-22,2.44, -0.14, 3.84, 2.41, 1.50, 7.00, repro,
2008-09-23,1.53, 1.05, -4.57, 2.50, 1.56, 7.25, repro,
2008-09-25,1.12, 1.67, 2.51, 2.40, 1.51, 7.07, repro,
2008-09-26,1.62, 1.33, -2.41, 2.39, 1.50, 7.02, repro,
2008-09-27,-1.69, 0.96, -1.85, 2.46, 1.57, 7.43, repro,
2008-09-28,-0.06, 2.03, -1.00, 2.50, 1.58, 7.32, repro,
2008-09-29,0.64, 3.28, -4.16, 2.44, 1.54, 7.23, repro,
2008-09-30,2.87, 0.89, -3.96, 2.44, 1.56, 7.39, repro,
2008-10-01,1.48, 0.05, -5.50, 2.40, 1.52, 7.10, repro,
2008-10-02,1.05, -1.91, 2.50, 2.77, 1.66, 7.83, repro,
2008-10-03,-1.97, 0.17, 4.48, 2.80, 1.67, 7.70, repro,
2008-10-04,0.89, -0.16, 9.01, 2.41, 1.51, 7.08, repro,
2008-10-05,1.12, 0.18, 4.74, 2.43, 1.51, 7.12, repro,
2008-10-06,0.49, 0.60, 0.78, 2.40, 1.49, 6.99, repro,
2008-10-07,-0.29, 0.96, 2.35, 2.40, 1.50, 6.98, repro,
2008-10-08,1.70, 1.37, -1.58, 2.46, 1.52, 7.11, repro,
2008-10-09,2.94, 0.66, -7.70, 2.42, 1.49, 7.02, repro,
2008-10-10,2.37, 1.01, -5.62, 2.46, 1.54, 7.20, repro,
2008-10-11,0.83, 2.03, -5.01, 2.54, 1.57, 7.43, repro,
2008-10-12,-0.25, 0.37, -2.99, 2.40, 1.49, 7.00, repro,
2008-10-13,1.49, -0.25, -1.04, 2.50, 1.53, 7.16, repro,
2008-10-14,2.77, -0.63, -3.12, 2.42, 1.49, 7.02, repro,
2008-10-15,1.21, -0.12, -2.52, 2.47, 1.53, 7.27, repro,
2008-10-16,1.08, -0.03, -0.05, 2.48, 1.55, 7.35, repro,
2008-10-17,0.24, 0.32, -1.81, 2.40, 1.49, 7.03, repro,
2008-10-18,1.18, 0.49, -0.40, 2.40, 1.49, 7.00, repro,
2008-10-19,1.78, 0.99, 2.52, 2.44, 1.51, 7.08, repro,
2008-10-20,1.29, 0.80, -2.18, 2.49, 1.57, 7.52, repro,
2008-10-21,1.37, 1.42, -4.33, 2.42, 1.51, 7.08, repro,
2008-10-22,4.72, 1.45, -1.81, 2.45, 1.51, 7.12, repro,
2008-10-23,0.83, 0.22, 0.75, 2.40, 1.49, 6.96, repro,
2008-10-24,0.89, 0.73, 4.34, 2.43, 1.49, 7.07, repro,
2008-10-25,1.12, 1.00, -4.76, 2.42, 1.51, 7.11, repro,
2008-10-26,4.07, 1.33, -5.52, 2.42, 1.51, 7.09, repro,
2008-10-27,2.55, 1.11, -11.05, 2.44, 1.50, 7.08, repro,
2008-10-28,1.60, 0.20, -0.63, 2.64, 1.63, 7.63, repro,
2008-10-29,-0.83, 0.10, -8.01, 2.54, 1.57, 7.42, repro,
2008-10-30,0.79, 1.02, -3.24, 2.53, 1.56, 7.37, repro,